Time,TemperatureF,DewpointF,PressureIn,WindDirection,WindDirectionDegrees,WindSpeedMPH,WindSpeedGustMPH,Humidity,HourlyPrecipIn,Conditions,Clouds,dailyrainin,SolarRadiationWatts/m^2,SoftwareType,DateUTC
2013-04-08 00:00:00,43.3,25.9,29.97,WNW,301,2.0,8.0,50,0.00,OVC,,0.00,0.0,WeatherDisplay:10.37,2013-04-08 04:00:00,
2013-04-08 00:05:00,43.3,25.9,29.97,NW,315,2.3,2.3,50,0.00,OVC,,0.00,0.0,WeatherDisplay:10.37,2013-04-08 04:05:00,
2013-04-08 00:07:00,43.3,25.9,29.97,NW,315,2.3,0.0,50,0.00,OVC,,0.00,0.0,WeatherDisplay:10.37,2013-04-08 04:07:00,
2013-04-08 00:12:00,43.3,25.9,29.97,NW,315,4.6,0.0,50,0.00,OVC,,0.00,0.0,WeatherDisplay:10.37,2013-04-08 04:12:00,
2013-04-08 00:17:00,43.3,25.9,30.00,WNW,292,4.6,4.6,50,0.00,OVC,,0.00,0.0,WeatherDisplay:10.37,2013-04-08 04:17:00,
2013-04-08 00:22:00,43.3,25.9,30.00,WNW,292,5.4,5.4,50,0.00,OVC,,0.00,0.0,WeatherDisplay:10.37,2013-04-08 04:22:00,
2013-04-08 00:27:00,43.3,25.9,30.00,NNW,338,0.0,0.0,50,0.00,OVC,,0.00,0.0,WeatherDisplay:10.37,2013-04-08 04:27:00,
2013-04-08 00:32:00,43.3,25.9,30.00,NW,315,0.0,0.9,50,0.00,OVC,,0.00,0.0,WeatherDisplay:10.37,2013-04-08 04:32:00,
2013-04-08 00:37:00,43.3,25.9,30.00,North,0,5.8,5.8,50,0.00,OVC,,0.00,0.0,WeatherDisplay:10.37,2013-04-08 04:37:00,
2013-04-08 00:42:00,43.3,25.9,30.00,NNW,338,4.6,4.6,50,0.00,OVC,,0.00,0.0,WeatherDisplay:10.37,2013-04-08 04:42:00,
2013-04-08 00:47:00,43.3,25.9,30.00,WNW,292,4.6,4.6,50,0.00,OVC,,0.00,0.0,WeatherDisplay:10.37,2013-04-08 04:47:00,
2013-04-08 00:52:00,43.3,25.9,30.00,WNW,292,0.0,0.0,50,0.00,OVC,,0.00,0.0,WeatherDisplay:10.37,2013-04-08 04:52:00,
2013-04-08 00:57:00,43.3,25.9,30.00,NNW,338,1.1,0.0,50,0.00,OVC,,0.00,0.0,WeatherDisplay:10.37,2013-04-08 04:57:00,
2013-04-08 01:02:00,43.3,25.9,29.97,WNW,292,0.0,0.0,50,0.00,OVC,,0.00,0.0,WeatherDisplay:10.37,2013-04-08 05:02:00,
2013-04-08 01:07:00,43.3,25.9,29.97,NW,315,3.5,3.5,50,0.00,OVC,,0.00,0.0,WeatherDisplay:10.37,2013-04-08 05:07:00,
2013-04-08 01:12:00,43.3,25.9,29.97,NNW,338,2.3,0.0,50,0.00,OVC,,0.00,0.0,WeatherDisplay:10.37,2013-04-08 05:12:00,
2013-04-08 01:17:00,43.3,25.9,30.00,NW,315,3.5,3.5,50,0.00,OVC,,0.00,0.0,WeatherDisplay:10.37,2013-04-08 05:17:00,
2013-04-08 01:22:00,43.3,25.9,30.00,WNW,292,4.6,4.6,50,0.00,OVC,,0.00,0.0,WeatherDisplay:10.37,2013-04-08 05:22:00,
2013-04-08 01:27:00,43.3,25.9,30.00,NW,315,0.0,0.0,50,0.00,OVC,,0.00,0.0,WeatherDisplay:10.37,2013-04-08 05:27:00,
2013-04-08 01:32:00,43.3,25.9,30.03,NW,315,2.3,2.3,50,0.00,OVC,,0.00,0.0,WeatherDisplay:10.37,2013-04-08 05:32:00,
2013-04-08 01:37:00,43.3,25.9,30.03,NW,315,0.0,0.0,50,0.00,OVC,,0.00,0.0,WeatherDisplay:10.37,2013-04-08 05:37:00,
2013-04-08 01:42:00,43.3,25.9,30.03,WNW,292,1.1,0.0,50,0.00,OVC,,0.00,0.0,WeatherDisplay:10.37,2013-04-08 05:42:00,
2013-04-08 01:47:00,43.3,25.9,29.97,WNW,292,0.0,0.0,50,0.00,OVC,,0.00,0.0,WeatherDisplay:10.37,2013-04-08 05:47:00,
2013-04-08 01:52:00,43.3,25.9,29.97,WNW,292,1.1,0.0,50,0.00,OVC,,0.00,0.0,WeatherDisplay:10.37,2013-04-08 05:52:00,
2013-04-08 01:57:00,43.3,25.9,29.97,NW,315,3.5,0.0,50,0.00,OVC,,0.00,0.0,WeatherDisplay:10.37,2013-04-08 05:57:00,
2013-04-08 02:02:00,43.3,25.9,30.00,WNW,292,3.5,3.5,50,0.00,OVC,,0.00,0.0,WeatherDisplay:10.37,2013-04-08 06:02:00,
2013-04-08 02:07:00,43.3,25.9,30.00,NW,315,0.0,0.0,50,0.00,OVC,,0.00,0.0,WeatherDisplay:10.37,2013-04-08 06:07:00,
2013-04-08 02:12:00,43.3,25.9,30.00,NW,315,4.6,0.0,50,0.00,OVC,,0.00,0.0,WeatherDisplay:10.37,2013-04-08 06:12:00,
2013-04-08 02:17:00,43.3,25.9,30.00,WNW,292,3.5,3.5,50,0.00,OVC,,0.00,0.0,WeatherDisplay:10.37,2013-04-08 06:17:00,
2013-04-08 02:22:00,43.3,25.9,30.00,WNW,292,3.8,0.0,50,0.00,OVC,,0.00,0.0,WeatherDisplay:10.37,2013-04-08 06:22:00,
2013-04-08 02:27:00,43.3,25.9,30.00,WNW,292,4.6,4.6,50,0.00,OVC,,0.00,0.0,WeatherDisplay:10.37,2013-04-08 06:27:00,
2013-04-08 02:32:00,43.3,25.9,30.00,NW,315,0.0,0.0,50,0.00,OVC,,0.00,0.0,WeatherDisplay:10.37,2013-04-08 06:32:00,
2013-04-08 02:38:00,43.3,25.9,30.00,WNW,292,0.0,0.0,50,0.00,OVC,,0.00,0.0,WeatherDisplay:10.37,2013-04-08 06:38:00,
2013-04-08 02:43:00,43.3,25.9,30.00,WNW,292,0.0,0.0,50,0.00,OVC,,0.00,0.0,WeatherDisplay:10.37,2013-04-08 06:43:00,
2013-04-08 02:48:00,43.3,25.9,30.00,WNW,292,0.0,0.0,50,0.00,OVC,,0.00,0.0,WeatherDisplay:10.37,2013-04-08 06:48:00,
2013-04-08 02:53:00,43.3,25.9,30.00,WNW,292,0.0,0.0,50,0.00,OVC,,0.00,0.0,WeatherDisplay:10.37,2013-04-08 06:53:00,
2013-04-08 02:58:00,43.3,25.9,30.00,West,270,0.0,0.0,50,0.00,OVC,,0.00,0.0,WeatherDisplay:10.37,2013-04-08 06:58:00,
2013-04-08 03:03:00,43.3,25.9,30.00,WSW,248,0.0,0.0,50,0.00,OVC,,0.00,0.0,WeatherDisplay:10.37,2013-04-08 07:03:00,
2013-04-08 03:08:00,43.3,25.9,30.00,WSW,248,0.0,0.0,50,0.00,OVC,,0.00,0.0,WeatherDisplay:10.37,2013-04-08 07:08:00,
2013-04-08 03:13:00,43.3,25.9,30.00,WSW,248,0.0,0.0,50,0.00,OVC,,0.00,0.0,WeatherDisplay:10.37,2013-04-08 07:13:00,
2013-04-08 03:18:00,43.3,25.9,30.00,WSW,248,2.3,0.0,50,0.00,OVC,,0.00,0.0,WeatherDisplay:10.37,2013-04-08 07:18:00,
2013-04-08 03:23:00,43.3,25.9,30.00,WSW,248,0.0,0.0,50,0.00,OVC,,0.00,0.0,WeatherDisplay:10.37,2013-04-08 07:23:00,
2013-04-08 03:28:00,43.3,25.9,30.00,WSW,248,1.1,0.0,50,0.00,OVC,,0.00,0.0,WeatherDisplay:10.37,2013-04-08 07:28:00,
2013-04-08 03:33:00,43.3,25.9,30.00,WSW,248,2.9,2.9,50,0.00,OVC,,0.00,0.0,WeatherDisplay:10.37,2013-04-08 07:33:00,
2013-04-08 03:38:00,43.3,25.9,30.00,West,270,0.0,0.0,50,0.00,OVC,,0.00,0.0,WeatherDisplay:10.37,2013-04-08 07:38:00,
2013-04-08 03:43:00,43.3,25.9,30.00,West,270,0.0,0.0,50,0.00,OVC,,0.00,0.0,WeatherDisplay:10.37,2013-04-08 07:43:00,
2013-04-08 03:48:00,43.3,25.9,30.00,West,270,0.0,0.0,50,0.00,OVC,,0.00,0.0,WeatherDisplay:10.37,2013-04-08 07:48:00,
2013-04-08 03:53:00,43.3,25.9,30.00,West,270,0.0,0.0,50,0.00,OVC,,0.00,0.0,WeatherDisplay:10.37,2013-04-08 07:53:00,
2013-04-08 03:58:00,43.3,25.9,30.00,West,270,0.0,0.0,50,0.00,OVC,,0.00,0.0,WeatherDisplay:10.37,2013-04-08 07:58:00,
2013-04-08 04:03:00,43.3,25.9,30.00,West,270,0.0,0.0,50,0.00,OVC,,0.00,0.0,WeatherDisplay:10.37,2013-04-08 08:03:00,
2013-04-08 04:08:00,43.3,25.9,30.00,West,270,0.0,0.0,50,0.00,OVC,,0.00,0.0,WeatherDisplay:10.37,2013-04-08 08:08:00,
2013-04-08 04:13:00,43.3,25.9,30.00,West,270,0.0,0.0,50,0.00,OVC,,0.00,0.0,WeatherDisplay:10.37,2013-04-08 08:13:00,
2013-04-08 04:18:00,43.3,25.9,30.00,West,270,0.0,0.0,50,0.00,OVC,,0.00,0.0,WeatherDisplay:10.37,2013-04-08 08:18:00,
2013-04-08 04:23:00,43.3,25.9,30.00,West,270,0.0,0.0,50,0.00,OVC,,0.00,0.0,WeatherDisplay:10.37,2013-04-08 08:23:00,
2013-04-08 04:28:00,43.3,25.9,30.00,West,270,0.0,0.0,50,0.00,OVC,,0.00,0.0,WeatherDisplay:10.37,2013-04-08 08:28:00,
2013-04-08 04:33:00,43.3,25.9,30.00,West,270,0.0,0.0,50,0.00,OVC,,0.00,0.0,WeatherDisplay:10.37,2013-04-08 08:33:00,
2013-04-08 04:38:00,43.3,25.9,30.00,West,270,0.0,0.0,50,0.00,OVC,,0.00,0.0,WeatherDisplay:10.37,2013-04-08 08:38:00,
2013-04-08 04:43:00,43.3,25.9,30.00,West,270,0.0,0.0,50,0.00,OVC,,0.00,0.0,WeatherDisplay:10.37,2013-04-08 08:43:00,
2013-04-08 04:49:00,43.3,25.9,30.00,West,270,0.0,0.0,50,0.00,OVC,,0.00,0.0,WeatherDisplay:10.37,2013-04-08 08:49:00,
2013-04-08 04:54:00,43.3,25.9,30.00,West,270,0.0,0.0,50,0.00,OVC,,0.00,0.0,WeatherDisplay:10.37,2013-04-08 08:54:00,
2013-04-08 04:59:00,43.3,25.9,30.00,West,270,0.0,0.0,50,0.00,OVC,,0.00,0.0,WeatherDisplay:10.37,2013-04-08 08:59:00,
2013-04-08 05:04:00,43.3,25.9,30.00,West,270,0.0,0.0,50,0.00,OVC,,0.00,0.0,WeatherDisplay:10.37,2013-04-08 09:04:00,
2013-04-08 05:09:00,43.3,25.9,30.00,West,270,0.0,0.0,50,0.00,OVC,,0.00,0.0,WeatherDisplay:10.37,2013-04-08 09:09:00,
2013-04-08 05:14:00,43.3,25.9,30.00,West,270,0.0,0.0,50,0.00,OVC,,0.00,0.0,WeatherDisplay:10.37,2013-04-08 09:14:00,
2013-04-08 05:19:00,43.3,25.9,30.00,West,270,0.0,0.0,50,0.00,OVC,,0.00,0.0,WeatherDisplay:10.37,2013-04-08 09:19:00,
2013-04-08 05:24:00,43.3,25.9,30.00,West,270,0.0,0.0,50,0.00,OVC,,0.00,0.0,WeatherDisplay:10.37,2013-04-08 09:24:00,
2013-04-08 05:30:00,43.3,25.9,30.00,West,270,0.0,0.0,50,0.00,OVC,,0.00,0.0,WeatherDisplay:10.37,2013-04-08 09:30:00,
2013-04-08 05:35:00,43.3,25.9,30.00,West,270,0.0,0.0,50,0.00,OVC,,0.00,0.0,WeatherDisplay:10.37,2013-04-08 09:35:00,
2013-04-08 05:40:00,43.3,25.9,30.00,West,270,0.0,0.0,50,0.00,OVC,,0.00,0.0,WeatherDisplay:10.37,2013-04-08 09:40:00,
2013-04-08 05:45:00,43.3,25.9,30.03,West,270,0.0,0.0,50,0.00,OVC,,0.00,0.0,WeatherDisplay:10.37,2013-04-08 09:45:00,
2013-04-08 05:50:00,43.3,25.9,30.03,West,270,0.0,0.0,50,0.00,OVC,,0.00,0.0,WeatherDisplay:10.37,2013-04-08 09:50:00,
2013-04-08 05:55:00,43.3,25.9,30.03,West,270,0.0,0.0,50,0.00,OVC,,0.00,0.0,WeatherDisplay:10.37,2013-04-08 09:55:00,
2013-04-08 06:00:00,43.3,25.9,30.03,West,270,0.0,0.0,50,0.00,OVC,,0.00,0.0,WeatherDisplay:10.37,2013-04-08 10:00:00,
2013-04-08 06:05:00,43.3,25.9,30.03,West,270,0.0,0.0,50,0.00,OVC,,0.00,0.0,WeatherDisplay:10.37,2013-04-08 10:05:00,
2013-04-08 06:10:00,43.3,25.9,30.03,West,270,0.0,0.0,50,0.00,OVC,,0.00,0.0,WeatherDisplay:10.37,2013-04-08 10:10:00,
2013-04-08 06:15:00,43.3,25.9,30.03,West,270,0.0,0.0,50,0.00,OVC,,0.00,0.0,WeatherDisplay:10.37,2013-04-08 10:15:00,
2013-04-08 06:20:00,43.3,25.9,30.03,West,270,0.0,0.0,50,0.00,OVC,,0.00,0.0,WeatherDisplay:10.37,2013-04-08 10:20:00,
2013-04-08 06:25:00,43.3,25.9,30.03,ESE,112,0.0,0.0,50,0.00,OVC,,0.00,0.0,WeatherDisplay:10.37,2013-04-08 10:25:00,
2013-04-08 06:30:00,43.3,25.9,30.03,ESE,112,0.0,0.0,50,0.00,OVC,,0.00,0.0,WeatherDisplay:10.37,2013-04-08 10:30:00,
2013-04-08 06:35:00,43.3,25.9,30.03,ESE,112,0.0,0.0,50,0.00,OVC,,0.00,0.0,WeatherDisplay:10.37,2013-04-08 10:35:00,
2013-04-08 06:40:00,43.3,25.9,30.03,ESE,112,0.0,0.0,50,0.00,OVC,,0.00,0.0,WeatherDisplay:10.37,2013-04-08 10:40:00,
2013-04-08 06:45:00,43.3,25.9,30.03,ESE,112,0.0,0.0,50,0.00,OVC,,0.00,0.0,WeatherDisplay:10.37,2013-04-08 10:45:00,
2013-04-08 06:50:00,43.3,25.9,30.03,ESE,112,0.0,0.0,50,0.00,OVC,,0.00,0.0,WeatherDisplay:10.37,2013-04-08 10:50:00,
2013-04-08 06:55:00,43.3,25.9,30.03,ESE,112,0.0,0.0,50,0.00,OVC,,0.00,0.0,WeatherDisplay:10.37,2013-04-08 10:55:00,
2013-04-08 07:00:00,43.3,25.9,30.03,ESE,112,0.0,0.0,50,0.00,OVC,,0.00,0.0,WeatherDisplay:10.37,2013-04-08 11:00:00,
2013-04-08 07:05:00,43.3,25.9,30.03,ESE,112,0.0,0.0,50,0.00,OVC,,0.00,0.0,WeatherDisplay:10.37,2013-04-08 11:05:00,
2013-04-08 07:10:00,43.3,25.9,30.03,ESE,112,0.0,0.0,50,0.00,OVC,,0.00,0.0,WeatherDisplay:10.37,2013-04-08 11:10:00,
2013-04-08 07:16:00,43.3,25.9,30.06,ESE,112,0.0,0.0,50,0.00,OVC,,0.00,0.0,WeatherDisplay:10.37,2013-04-08 11:16:00,
2013-04-08 07:21:00,43.3,25.9,30.06,ESE,112,0.0,0.0,50,0.00,OVC,,0.00,0.0,WeatherDisplay:10.37,2013-04-08 11:21:00,
2013-04-08 07:26:00,43.3,25.9,30.06,ESE,112,0.0,0.0,50,0.00,OVC,,0.00,0.0,WeatherDisplay:10.37,2013-04-08 11:26:00,
2013-04-08 07:31:00,43.3,25.9,30.06,ESE,112,0.0,0.0,50,0.00,OVC,,0.00,0.0,WeatherDisplay:10.37,2013-04-08 11:31:00,
2013-04-08 07:36:00,43.3,25.9,30.06,ESE,112,0.0,0.0,50,0.00,OVC,,0.00,0.0,WeatherDisplay:10.37,2013-04-08 11:36:00,
2013-04-08 07:41:00,43.3,25.9,30.06,ESE,112,0.0,0.0,50,0.00,OVC,,0.00,0.0,WeatherDisplay:10.37,2013-04-08 11:41:00,
2013-04-08 07:46:00,43.3,25.9,30.06,ESE,112,0.0,0.0,50,0.00,OVC,,0.00,0.0,WeatherDisplay:10.37,2013-04-08 11:46:00,
2013-04-08 07:51:00,43.3,25.9,30.06,ESE,112,0.0,0.0,50,0.00,OVC,,0.00,0.0,WeatherDisplay:10.37,2013-04-08 11:51:00,
2013-04-08 07:56:00,43.3,25.9,30.06,ESE,112,0.0,0.0,50,0.00,OVC,,0.00,0.0,WeatherDisplay:10.37,2013-04-08 11:56:00,
2013-04-08 08:02:00,43.3,25.9,30.06,ESE,112,0.0,0.0,50,0.00,OVC,,0.00,0.0,WeatherDisplay:10.37,2013-04-08 12:02:00,
2013-04-08 08:07:00,43.3,25.9,30.06,ESE,112,0.0,0.0,50,0.00,OVC,,0.00,0.0,WeatherDisplay:10.37,2013-04-08 12:07:00,
2013-04-08 08:12:00,43.3,25.9,30.06,ESE,112,0.0,0.0,50,0.00,OVC,,0.00,0.0,WeatherDisplay:10.37,2013-04-08 12:12:00,
2013-04-08 08:17:00,43.3,25.9,30.06,ESE,112,0.0,0.0,50,0.00,OVC,,0.00,0.0,WeatherDisplay:10.37,2013-04-08 12:17:00,
2013-04-08 08:22:00,43.3,25.9,30.06,ESE,112,0.0,0.0,50,0.00,OVC,,0.00,0.0,WeatherDisplay:10.37,2013-04-08 12:22:00,
2013-04-08 08:27:00,43.3,25.9,30.06,ESE,112,0.0,0.0,50,0.00,OVC,,0.00,0.0,WeatherDisplay:10.37,2013-04-08 12:27:00,
2013-04-08 08:32:00,43.3,25.9,30.06,ESE,112,0.0,0.0,50,0.00,OVC,,0.00,0.0,WeatherDisplay:10.37,2013-04-08 12:32:00,
2013-04-08 08:37:00,43.3,25.9,30.06,ESE,112,0.0,0.0,50,0.00,OVC,,0.00,0.0,WeatherDisplay:10.37,2013-04-08 12:37:00,
2013-04-08 08:42:00,43.3,25.9,30.06,ESE,112,0.0,0.0,50,0.00,OVC,,0.00,0.0,WeatherDisplay:10.37,2013-04-08 12:42:00,
2013-04-08 08:47:00,43.3,25.9,30.09,ESE,112,0.0,0.0,50,0.00,OVC,,0.00,0.0,WeatherDisplay:10.37,2013-04-08 12:47:00,
2013-04-08 08:52:00,43.3,25.9,30.09,ESE,112,0.0,0.0,50,0.00,OVC,,0.00,0.0,WeatherDisplay:10.37,2013-04-08 12:52:00,
2013-04-08 08:57:00,43.3,25.9,30.09,ESE,112,1.4,1.4,50,0.00,OVC,,0.00,0.0,WeatherDisplay:10.37,2013-04-08 12:57:00,
2013-04-08 09:02:00,43.3,25.9,30.06,ESE,112,3.5,3.5,50,0.00,OVC,,0.00,0.0,WeatherDisplay:10.37,2013-04-08 13:02:00,
2013-04-08 09:07:00,43.3,25.9,30.06,ESE,112,3.5,3.5,50,0.00,OVC,,0.00,0.0,WeatherDisplay:10.37,2013-04-08 13:07:00,
2013-04-08 09:12:00,43.3,25.9,30.06,ESE,112,2.3,2.3,50,0.00,OVC,,0.00,0.0,WeatherDisplay:10.37,2013-04-08 13:12:00,
2013-04-08 09:18:00,43.3,25.9,30.06,ESE,112,3.8,3.8,50,0.00,OVC,,0.00,0.0,WeatherDisplay:10.37,2013-04-08 13:18:00,
2013-04-08 09:23:00,43.3,25.9,30.06,ESE,112,2.3,2.3,50,0.00,OVC,,0.00,0.0,WeatherDisplay:10.37,2013-04-08 13:23:00,
2013-04-08 09:28:00,43.3,25.9,30.06,SE,135,1.1,0.0,50,0.00,OVC,,0.00,0.0,WeatherDisplay:10.37,2013-04-08 13:28:00,
2013-04-08 09:33:00,43.3,25.9,30.06,ESE,112,2.3,2.3,50,0.00,OVC,,0.00,0.0,WeatherDisplay:10.37,2013-04-08 13:33:00,
2013-04-08 09:38:00,43.3,25.9,30.06,SE,135,3.8,3.8,50,0.00,OVC,,0.00,0.0,WeatherDisplay:10.37,2013-04-08 13:38:00,
2013-04-08 09:43:00,43.3,25.9,30.06,East,90,3.5,3.5,50,0.00,OVC,,0.00,0.0,WeatherDisplay:10.37,2013-04-08 13:43:00,
2013-04-08 09:48:00,43.3,25.9,30.06,ESE,112,6.0,6.0,50,0.00,OVC,,0.00,0.0,WeatherDisplay:10.37,2013-04-08 13:48:00,
2013-04-08 09:53:00,43.3,25.9,30.06,SE,135,0.0,0.0,50,0.00,OVC,,0.00,0.0,WeatherDisplay:10.37,2013-04-08 13:53:00,
2013-04-08 09:58:00,43.3,25.9,30.06,East,90,2.3,0.0,50,0.00,OVC,,0.00,0.0,WeatherDisplay:10.37,2013-04-08 13:58:00,
2013-04-08 10:03:00,43.3,25.9,30.06,ESE,112,0.0,0.0,50,0.00,BKN,,0.00,0.0,WeatherDisplay:10.37,2013-04-08 14:03:00,
2013-04-08 10:08:00,43.3,25.9,30.06,SSE,158,3.6,0.0,50,0.00,BKN,,0.00,0.0,WeatherDisplay:10.37,2013-04-08 14:08:00,
2013-04-08 10:13:00,43.3,25.9,30.06,WSW,248,0.0,0.0,50,0.00,BKN,,0.00,0.0,WeatherDisplay:10.37,2013-04-08 14:13:00,
2013-04-08 10:18:00,43.3,25.9,30.06,SSW,202,2.3,0.0,50,0.00,BKN,,0.00,0.0,WeatherDisplay:10.37,2013-04-08 14:18:00,
2013-04-08 10:23:00,43.3,25.9,30.06,SSW,202,2.3,0.0,50,0.00,BKN,,0.00,0.0,WeatherDisplay:10.37,2013-04-08 14:23:00,
2013-04-08 10:28:00,43.3,25.9,30.06,SE,135,1.1,0.0,50,0.00,BKN,,0.00,0.0,WeatherDisplay:10.37,2013-04-08 14:28:00,
2013-04-08 10:33:00,43.3,25.9,30.06,ESE,112,0.0,0.0,50,0.00,BKN,,0.00,0.0,WeatherDisplay:10.37,2013-04-08 14:33:00,
2013-04-08 10:38:00,43.3,25.9,30.06,SSE,158,0.0,0.0,50,0.00,BKN,,0.00,0.0,WeatherDisplay:10.37,2013-04-08 14:38:00,
2013-04-08 10:43:00,43.3,25.9,30.06,SW,225,4.6,4.6,50,0.00,BKN,,0.00,0.0,WeatherDisplay:10.37,2013-04-08 14:43:00,
2013-04-08 10:48:00,43.3,25.9,30.06,ESE,112,4.6,4.6,50,0.00,BKN,,0.00,1000.0,WeatherDisplay:10.37,2013-04-08 14:48:00,
2013-04-08 10:53:00,43.3,25.9,30.06,East,90,5.8,5.8,50,0.00,BKN,,0.00,1100.0,WeatherDisplay:10.37,2013-04-08 14:53:00,
2013-04-08 10:58:00,43.3,25.9,30.06,ESE,112,0.0,0.0,50,0.00,BKN,,0.00,300.0,WeatherDisplay:10.37,2013-04-08 14:58:00,
2013-04-08 11:03:00,43.3,25.9,30.06,ESE,112,0.0,0.0,50,0.00,BKN,,0.00,300.0,WeatherDisplay:10.37,2013-04-08 15:03:00,
2013-04-08 11:08:00,43.3,25.9,30.06,ESE,112,5.8,5.8,50,0.00,BKN,,0.00,1600.0,WeatherDisplay:10.37,2013-04-08 15:08:00,
2013-04-08 11:13:00,43.3,25.9,30.06,SSW,202,5.8,5.8,50,0.00,BKN,,0.00,1600.0,WeatherDisplay:10.37,2013-04-08 15:13:00,
2013-04-08 11:18:00,43.3,25.9,30.06,SE,135,2.3,0.0,50,0.00,BKN,,0.00,1600.0,WeatherDisplay:10.37,2013-04-08 15:18:00,
2013-04-08 11:23:00,43.3,25.9,30.06,SSE,158,4.6,4.6,50,0.00,BKN,,0.00,1500.0,WeatherDisplay:10.37,2013-04-08 15:23:00,
2013-04-08 11:28:00,43.3,25.9,30.06,East,90,2.9,2.9,50,0.00,BKN,,0.00,1500.0,WeatherDisplay:10.37,2013-04-08 15:28:00,
2013-04-08 11:33:00,43.3,25.9,30.06,ESE,112,5.8,5.8,50,0.00,BKN,,0.00,1500.0,WeatherDisplay:10.37,2013-04-08 15:33:00,
2013-04-08 11:38:00,43.3,25.9,30.06,SE,135,4.6,4.6,50,0.00,BKN,,0.00,1500.0,WeatherDisplay:10.37,2013-04-08 15:38:00,
2013-04-08 11:43:00,43.3,25.9,30.06,ESE,112,6.9,6.9,50,0.00,BKN,,0.00,1500.0,WeatherDisplay:10.37,2013-04-08 15:43:00,
2013-04-08 11:48:00,43.3,25.9,30.06,SSE,158,8.1,8.1,50,0.00,BKN,,0.00,1500.0,WeatherDisplay:10.37,2013-04-08 15:48:00,
2013-04-08 11:53:00,43.3,25.9,30.06,ESE,112,3.6,3.6,50,0.00,BKN,,0.00,1500.0,WeatherDisplay:10.37,2013-04-08 15:53:00,
2013-04-08 11:58:00,43.3,25.9,30.06,ESE,112,3.3,0.0,50,0.00,BKN,,0.00,1500.0,WeatherDisplay:10.37,2013-04-08 15:58:00,
2013-04-08 12:03:00,43.3,25.9,30.06,East,90,5.8,5.8,50,0.00,BKN,,0.00,1500.0,WeatherDisplay:10.37,2013-04-08 16:03:00,
2013-04-08 12:08:00,43.3,25.9,30.06,SSW,202,2.3,0.0,50,0.00,BKN,,0.00,0.0,WeatherDisplay:10.37,2013-04-08 16:08:00,
2013-04-08 12:13:00,43.3,25.9,30.03,NW,315,3.5,3.5,50,0.00,BKN,,0.00,0.0,WeatherDisplay:10.37,2013-04-08 16:13:00,
2013-04-08 12:18:00,43.3,25.9,30.03,SSE,158,2.3,2.3,50,0.00,BKN,,0.00,0.0,WeatherDisplay:10.37,2013-04-08 16:18:00,
2013-04-08 12:23:00,43.3,25.9,30.03,ESE,112,2.3,2.3,50,0.00,BKN,,0.00,0.0,WeatherDisplay:10.37,2013-04-08 16:23:00,
2013-04-08 12:28:00,43.3,25.9,30.03,SSE,158,5.8,5.8,50,0.00,BKN,,0.00,0.0,WeatherDisplay:10.37,2013-04-08 16:28:00,
2013-04-08 12:33:00,43.3,25.9,30.03,WSW,248,2.3,0.0,50,0.00,BKN,,0.00,1300.0,WeatherDisplay:10.37,2013-04-08 16:33:00,
2013-04-08 12:38:00,43.3,25.9,30.03,ESE,112,0.0,0.0,50,0.00,BKN,,0.00,0.0,WeatherDisplay:10.37,2013-04-08 16:38:00,
2013-04-08 12:43:00,43.3,25.9,30.00,SSE,158,5.8,5.8,50,0.00,BKN,,0.00,1500.0,WeatherDisplay:10.37,2013-04-08 16:43:00,
2013-04-08 12:48:00,43.3,25.9,30.00,ESE,112,5.9,5.9,50,0.00,BKN,,0.00,0.0,WeatherDisplay:10.37,2013-04-08 16:48:00,
2013-04-08 12:53:00,43.3,25.9,30.00,ESE,112,5.8,5.8,50,0.00,BKN,,0.00,0.0,WeatherDisplay:10.37,2013-04-08 16:53:00,
2013-04-08 12:58:00,43.3,25.9,30.00,ESE,112,6.9,6.9,50,0.00,BKN,,0.00,0.0,WeatherDisplay:10.37,2013-04-08 16:58:00,
2013-04-08 13:03:00,43.3,25.9,30.00,SSE,158,5.8,5.8,50,0.00,BKN,,0.00,0.0,WeatherDisplay:10.37,2013-04-08 17:03:00,
2013-04-08 13:08:00,43.3,25.9,30.00,SE,135,5.8,5.8,50,0.00,BKN,,0.00,0.0,WeatherDisplay:10.37,2013-04-08 17:08:00,
2013-04-08 13:13:00,43.3,25.9,30.00,ESE,112,5.6,0.0,50,0.00,BKN,,0.00,0.0,WeatherDisplay:10.37,2013-04-08 17:13:00,
2013-04-08 13:18:00,43.3,25.9,30.00,East,90,5.8,5.8,50,0.00,BKN,,0.00,0.0,WeatherDisplay:10.37,2013-04-08 17:18:00,
2013-04-08 13:24:00,43.3,25.9,30.00,SSE,158,4.6,4.6,50,0.00,BKN,,0.00,0.0,WeatherDisplay:10.37,2013-04-08 17:24:00,
2013-04-08 13:29:00,43.3,25.9,29.97,ESE,112,6.9,6.9,50,0.00,BKN,,0.00,0.0,WeatherDisplay:10.37,2013-04-08 17:29:00,
2013-04-08 13:34:00,43.3,25.9,29.97,NNW,338,4.6,0.0,50,0.00,BKN,,0.00,0.0,WeatherDisplay:10.37,2013-04-08 17:34:00,
2013-04-08 13:39:00,43.3,25.9,29.97,ESE,112,9.2,9.2,50,0.00,BKN,,0.00,0.0,WeatherDisplay:10.37,2013-04-08 17:39:00,
2013-04-08 13:44:00,43.3,25.9,30.00,SE,135,4.5,0.0,50,0.00,BKN,,0.00,0.0,WeatherDisplay:10.37,2013-04-08 17:44:00,
2013-04-08 13:49:00,43.3,25.9,30.00,ESE,112,6.9,6.9,50,0.00,BKN,,0.00,0.0,WeatherDisplay:10.37,2013-04-08 17:49:00,
2013-04-08 13:54:00,43.3,25.9,30.00,SSE,158,8.1,8.1,50,0.00,BKN,,0.00,0.0,WeatherDisplay:10.37,2013-04-08 17:54:00,
2013-04-08 13:59:00,43.3,25.9,29.97,ESE,112,1.1,0.0,50,0.00,BKN,,0.00,0.0,WeatherDisplay:10.37,2013-04-08 17:59:00,
2013-04-08 14:04:00,43.3,25.9,29.97,ENE,68,7.8,7.8,50,0.00,BKN,,0.00,0.0,WeatherDisplay:10.37,2013-04-08 18:04:00,
2013-04-08 14:09:00,43.3,25.9,29.97,ESE,112,8.1,8.1,50,0.00,BKN,,0.00,0.0,WeatherDisplay:10.37,2013-04-08 18:09:00,
2013-04-08 14:14:00,43.3,25.9,29.97,SE,126,3.0,6.0,50,0.00,BKN,,0.00,0.0,WeatherDisplay:10.37,2013-04-08 18:14:00,
2013-04-08 14:20:00,43.3,25.9,29.97,SE,130,3.0,9.0,50,0.00,BKN,,0.00,0.0,WeatherDisplay:10.37,2013-04-08 18:20:00,
2013-04-08 14:25:00,43.3,25.9,29.97,ESE,112,6.4,6.4,50,0.00,BKN,,0.00,0.0,WeatherDisplay:10.37,2013-04-08 18:25:00,
2013-04-08 14:30:00,43.3,25.9,29.97,SSE,157,1.0,7.0,50,0.00,BKN,,0.00,0.0,WeatherDisplay:10.37,2013-04-08 18:30:00,
2013-04-08 14:35:00,43.3,25.9,29.97,ENE,68,11.5,11.5,50,0.00,BKN,,0.00,0.0,WeatherDisplay:10.37,2013-04-08 18:35:00,
2013-04-08 14:40:00,43.3,25.9,29.97,WSW,248,2.3,2.3,50,0.00,BKN,,0.00,0.0,WeatherDisplay:10.37,2013-04-08 18:40:00,
2013-04-08 14:45:00,43.3,25.9,29.97,SE,135,7.8,7.8,50,0.00,BKN,,0.00,0.0,WeatherDisplay:10.37,2013-04-08 18:45:00,
2013-04-08 14:50:00,43.3,25.9,29.97,SE,135,3.5,3.5,50,0.00,BKN,,0.00,0.0,WeatherDisplay:10.37,2013-04-08 18:50:00,
2013-04-08 14:55:00,43.3,25.9,29.97,SSE,158,3.8,3.8,50,0.00,BKN,,0.00,1600.0,WeatherDisplay:10.37,2013-04-08 18:55:00,
2013-04-08 15:00:00,43.3,25.9,29.94,SE,135,8.1,8.1,50,0.00,BKN,,0.00,1500.0,WeatherDisplay:10.37,2013-04-08 19:00:00,
2013-04-08 15:05:00,43.3,25.9,29.94,ESE,112,3.5,3.5,50,0.00,OVC,,0.00,1300.0,WeatherDisplay:10.37,2013-04-08 19:05:00,
2013-04-08 15:10:00,43.3,25.9,29.94,SSW,202,5.9,5.9,50,0.00,OVC,,0.00,1200.0,WeatherDisplay:10.37,2013-04-08 19:10:00,
2013-04-08 15:15:00,43.3,25.9,29.91,ESE,112,8.1,8.1,50,0.00,OVC,,0.00,1000.0,WeatherDisplay:10.37,2013-04-08 19:15:00,
2013-04-08 15:20:00,43.3,25.9,29.91,South,180,8.1,8.1,50,0.00,OVC,,0.00,900.0,WeatherDisplay:10.37,2013-04-08 19:20:00,
2013-04-08 15:25:00,43.3,25.9,29.91,ESE,112,6.9,6.9,50,0.00,OVC,,0.00,800.0,WeatherDisplay:10.37,2013-04-08 19:25:00,
2013-04-08 15:30:00,43.3,25.9,29.94,South,180,8.1,8.1,50,0.00,OVC,,0.00,800.0,WeatherDisplay:10.37,2013-04-08 19:30:00,
2013-04-08 15:35:00,43.3,25.9,29.94,ESE,112,9.2,9.2,50,0.00,OVC,,0.00,800.0,WeatherDisplay:10.37,2013-04-08 19:35:00,
2013-04-08 15:40:00,43.3,25.9,29.94,ESE,112,7.6,7.6,50,0.00,OVC,,0.00,900.0,WeatherDisplay:10.37,2013-04-08 19:40:00,
2013-04-08 15:45:00,43.3,25.9,29.94,WSW,248,8.1,8.1,50,0.00,OVC,,0.00,900.0,WeatherDisplay:10.37,2013-04-08 19:45:00,
2013-04-08 15:50:00,43.3,25.9,29.94,ESE,112,4.6,4.6,50,0.00,OVC,,0.00,900.0,WeatherDisplay:10.37,2013-04-08 19:50:00,
2013-04-08 15:56:00,43.3,25.9,29.94,East,90,7.6,7.6,50,0.00,OVC,,0.00,800.0,WeatherDisplay:10.37,2013-04-08 19:56:00,
2013-04-08 16:01:00,43.3,25.9,29.91,East,90,10.5,10.5,50,0.00,OVC,,0.00,0.0,WeatherDisplay:10.37,2013-04-08 20:01:00,
2013-04-08 16:06:00,43.3,25.9,29.91,ESE,112,10.5,10.5,50,0.00,OVC,,0.00,0.0,WeatherDisplay:10.37,2013-04-08 20:06:00,
2013-04-08 16:11:00,43.3,25.9,29.91,East,90,9.2,9.2,50,0.00,OVC,,0.00,0.0,WeatherDisplay:10.37,2013-04-08 20:11:00,
2013-04-08 16:16:00,43.3,25.9,29.88,SSE,158,10.4,10.4,50,0.00,OVC,,0.00,500.0,WeatherDisplay:10.37,2013-04-08 20:16:00,
2013-04-08 16:22:00,43.3,25.9,29.88,ESE,112,9.2,9.2,50,0.00,OVC,,0.00,400.0,WeatherDisplay:10.37,2013-04-08 20:22:00,
2013-04-08 16:27:00,43.3,25.9,29.88,ESE,112,4.3,4.3,50,0.00,OVC,,0.00,400.0,WeatherDisplay:10.37,2013-04-08 20:27:00,
2013-04-08 16:32:00,43.3,25.9,29.88,ESE,112,10.9,10.9,50,0.00,OVC,,0.00,400.0,WeatherDisplay:10.37,2013-04-08 20:32:00,
2013-04-08 16:37:00,43.3,25.9,29.88,ESE,112,9.8,9.8,50,0.00,OVC,,0.00,400.0,WeatherDisplay:10.37,2013-04-08 20:37:00,
2013-04-08 16:42:00,43.3,25.9,29.88,ESE,112,5.8,5.8,50,0.00,OVC,,0.00,400.0,WeatherDisplay:10.37,2013-04-08 20:42:00,
2013-04-08 16:47:00,43.3,25.9,29.88,ESE,112,8.1,8.1,50,0.00,OVC,,0.00,300.0,WeatherDisplay:10.37,2013-04-08 20:47:00,
2013-04-08 16:52:00,43.3,25.9,29.88,ESE,112,9.8,9.8,50,0.00,OVC,,0.00,300.0,WeatherDisplay:10.37,2013-04-08 20:52:00,
2013-04-08 16:57:00,43.3,25.9,29.88,ENE,68,5.9,5.9,50,0.00,OVC,,0.00,200.0,WeatherDisplay:10.37,2013-04-08 20:57:00,
2013-04-08 17:02:00,43.3,25.9,29.85,ENE,68,5.9,5.9,50,0.00,OVC,,0.00,300.0,WeatherDisplay:10.37,2013-04-08 21:02:00,
2013-04-08 17:07:00,43.3,25.9,29.85,ENE,68,5.9,5.9,50,0.00,OVC,,0.00,300.0,WeatherDisplay:10.37,2013-04-08 21:07:00,
2013-04-08 17:12:00,43.3,25.9,29.85,ENE,68,6.2,6.2,50,0.00,OVC,,0.00,200.0,WeatherDisplay:10.37,2013-04-08 21:12:00,
2013-04-08 17:17:00,43.3,25.9,29.88,ENE,68,5.8,5.8,50,0.00,OVC,,0.00,200.0,WeatherDisplay:10.37,2013-04-08 21:17:00,
2013-04-08 17:22:00,43.3,25.9,29.88,ENE,68,6.9,6.9,50,0.00,OVC,,0.00,0.0,WeatherDisplay:10.37,2013-04-08 21:22:00,
2013-04-08 17:27:00,43.3,25.9,29.88,East,90,5.8,5.8,50,0.00,OVC,,0.00,0.0,WeatherDisplay:10.37,2013-04-08 21:27:00,
2013-04-08 17:32:00,43.3,25.9,29.88,East,90,4.6,4.6,50,0.00,OVC,,0.00,0.0,WeatherDisplay:10.37,2013-04-08 21:32:00,
2013-04-08 17:37:00,43.3,25.9,29.88,ENE,68,4.6,4.6,50,0.00,OVC,,0.00,0.0,WeatherDisplay:10.37,2013-04-08 21:37:00,
2013-04-08 17:42:00,43.3,25.9,29.88,East,90,1.1,0.0,50,0.00,OVC,,0.00,0.0,WeatherDisplay:10.37,2013-04-08 21:42:00,
2013-04-08 17:47:00,43.3,25.9,29.88,ENE,68,0.0,0.0,50,0.00,OVC,,0.00,0.0,WeatherDisplay:10.37,2013-04-08 21:47:00,
2013-04-08 17:52:00,43.3,25.9,29.88,ENE,68,4.3,4.3,50,0.00,OVC,,0.00,0.0,WeatherDisplay:10.37,2013-04-08 21:52:00,
2013-04-08 17:57:00,43.3,25.9,29.88,ENE,68,4.9,4.9,50,0.00,OVC,,0.00,0.0,WeatherDisplay:10.37,2013-04-08 21:57:00,
2013-04-08 18:02:00,43.3,25.9,29.88,ENE,68,4.6,4.6,50,0.00,-RA,,0.00,0.0,WeatherDisplay:10.37,2013-04-08 22:02:00,
2013-04-08 18:07:00,43.3,25.9,29.88,ENE,68,4.6,4.6,50,0.00,-RA,,0.00,0.0,WeatherDisplay:10.37,2013-04-08 22:07:00,
2013-04-08 18:12:00,43.3,25.9,29.88,ENE,68,6.0,6.0,50,0.00,-RA,,0.00,0.0,WeatherDisplay:10.37,2013-04-08 22:12:00,
2013-04-08 18:17:00,43.3,25.9,29.85,ENE,68,6.2,6.2,50,0.00,-RA,,0.00,0.0,WeatherDisplay:10.37,2013-04-08 22:17:00,
2013-04-08 18:22:00,43.3,25.9,29.85,East,90,5.9,5.9,50,0.00,-RA,,0.00,0.0,WeatherDisplay:10.37,2013-04-08 22:22:00,
2013-04-08 18:28:00,43.3,25.9,29.85,ENE,68,6.9,6.9,50,0.00,-RA,,0.00,0.0,WeatherDisplay:10.37,2013-04-08 22:28:00,
2013-04-08 18:33:00,43.3,25.9,29.85,ENE,68,3.5,3.5,50,0.00,-RA,,0.00,0.0,WeatherDisplay:10.37,2013-04-08 22:33:00,
2013-04-08 18:38:00,43.3,25.9,29.85,ENE,68,4.6,4.6,50,0.00,-RA,,0.00,0.0,WeatherDisplay:10.37,2013-04-08 22:38:00,
2013-04-08 18:43:00,43.3,25.9,29.85,ESE,112,5.8,5.8,50,0.00,-RA,,0.00,0.0,WeatherDisplay:10.37,2013-04-08 22:43:00,
2013-04-08 18:48:00,43.3,25.9,29.85,ESE,112,7.4,7.4,50,0.00,-RA,,0.00,0.0,WeatherDisplay:10.37,2013-04-08 22:48:00,
2013-04-08 18:53:00,43.3,25.9,29.85,East,90,2.3,0.0,50,0.00,-RA,,0.00,0.0,WeatherDisplay:10.37,2013-04-08 22:53:00,
2013-04-08 18:58:00,43.3,25.9,29.83,East,90,4.6,4.6,50,0.00,-RA,,0.00,0.0,WeatherDisplay:10.37,2013-04-08 22:58:00,
2013-04-08 19:03:00,43.3,25.9,29.83,ENE,68,4.6,4.6,50,0.00,OVC,,0.00,0.0,WeatherDisplay:10.37,2013-04-08 23:03:00,
2013-04-08 19:08:00,43.3,25.9,29.83,ENE,68,5.8,5.8,50,0.00,OVC,,0.00,0.0,WeatherDisplay:10.37,2013-04-08 23:08:00,
2013-04-08 19:13:00,43.3,25.9,29.83,ENE,68,6.7,6.7,50,0.00,OVC,,0.00,0.0,WeatherDisplay:10.37,2013-04-08 23:13:00,
2013-04-08 19:18:00,43.3,25.9,29.83,ENE,68,5.8,5.8,50,0.00,OVC,,0.00,0.0,WeatherDisplay:10.37,2013-04-08 23:18:00,
2013-04-08 19:23:00,43.3,25.9,29.83,ENE,68,5.8,5.8,50,0.00,OVC,,0.00,0.0,WeatherDisplay:10.37,2013-04-08 23:23:00,
2013-04-08 19:28:00,43.3,25.9,29.83,ENE,68,3.6,3.6,50,0.00,OVC,,0.00,0.0,WeatherDisplay:10.37,2013-04-08 23:28:00,
2013-04-08 19:33:00,43.3,25.9,29.83,ENE,68,5.4,5.4,50,0.00,OVC,,0.00,0.0,WeatherDisplay:10.37,2013-04-08 23:33:00,
2013-04-08 19:38:00,43.3,25.9,29.83,ENE,68,3.5,3.5,50,0.00,OVC,,0.00,0.0,WeatherDisplay:10.37,2013-04-08 23:38:00,
2013-04-08 19:43:00,43.3,25.9,29.85,NNE,22,4.6,4.6,50,0.00,OVC,,0.00,0.0,WeatherDisplay:10.37,2013-04-08 23:43:00,
2013-04-08 19:48:00,43.3,25.9,29.85,North,0,5.9,5.9,50,0.00,OVC,,0.00,0.0,WeatherDisplay:10.37,2013-04-08 23:48:00,
2013-04-08 19:53:00,43.3,25.9,29.85,North,0,6.2,6.2,50,0.00,OVC,,0.00,0.0,WeatherDisplay:10.37,2013-04-08 23:53:00,
2013-04-08 19:58:00,43.3,25.9,29.85,North,0,8.1,8.1,50,0.00,OVC,,0.00,0.0,WeatherDisplay:10.37,2013-04-08 23:58:00,
2013-04-08 20:03:00,43.3,25.9,29.85,NNE,22,5.8,6.2,50,0.00,-RA,,0.00,0.0,WeatherDisplay:10.37,2013-04-09 00:03:00,
2013-04-08 20:08:00,43.3,25.9,29.85,NE,45,8.1,8.1,50,0.00,-RA,,0.00,0.0,WeatherDisplay:10.37,2013-04-09 00:08:00,
2013-04-08 20:13:00,43.3,25.9,29.85,NE,45,8.1,8.1,50,0.00,-RA,,0.00,0.0,WeatherDisplay:10.37,2013-04-09 00:13:00,
2013-04-08 20:18:00,43.3,25.9,29.85,ENE,68,5.8,5.8,50,0.00,-RA,,0.00,0.0,WeatherDisplay:10.37,2013-04-09 00:18:00,
2013-04-08 20:23:00,43.3,25.9,29.85,ENE,68,4.6,4.6,50,0.00,-RA,,0.00,0.0,WeatherDisplay:10.37,2013-04-09 00:23:00,
2013-04-08 20:28:00,43.3,25.9,29.83,ENE,68,4.6,4.6,50,0.00,-RA,,0.00,0.0,WeatherDisplay:10.37,2013-04-09 00:28:00,
2013-04-08 20:33:00,43.3,25.9,29.83,ESE,112,5.8,5.8,50,0.00,-RA,,0.00,0.0,WeatherDisplay:10.37,2013-04-09 00:33:00,
2013-04-08 20:38:00,43.3,25.9,29.83,East,90,5.8,5.8,50,0.00,-RA,,0.00,0.0,WeatherDisplay:10.37,2013-04-09 00:38:00,
2013-04-08 20:43:00,43.3,25.9,29.83,ESE,112,6.9,6.9,50,0.00,-RA,,0.00,0.0,WeatherDisplay:10.37,2013-04-09 00:43:00,
2013-04-08 20:49:00,43.3,25.9,29.83,East,90,5.9,5.9,50,0.00,-RA,,0.00,0.0,WeatherDisplay:10.37,2013-04-09 00:49:00,
2013-04-08 20:54:00,43.3,25.9,29.83,ESE,112,6.9,6.9,50,0.00,-RA,,0.00,0.0,WeatherDisplay:10.37,2013-04-09 00:54:00,
2013-04-08 20:59:00,43.3,25.9,29.80,SE,135,5.6,5.6,50,0.00,-RA,,0.00,0.0,WeatherDisplay:10.37,2013-04-09 00:59:00,
2013-04-08 21:04:00,43.3,25.9,29.80,SE,135,6.0,6.0,50,0.00,OVC,,0.00,0.0,WeatherDisplay:10.37,2013-04-09 01:04:00,
2013-04-08 21:10:00,43.3,25.9,29.80,ESE,120,1.0,7.0,50,0.00,OVC,,0.00,0.0,WeatherDisplay:10.37,2013-04-09 01:10:00,
2013-04-08 21:15:00,43.3,25.9,29.80,SSW,202,0.0,0.0,50,0.00,OVC,,0.00,0.0,WeatherDisplay:10.37,2013-04-09 01:15:00,
2013-04-08 21:20:00,43.3,25.9,29.80,SW,225,3.6,3.6,50,0.00,OVC,,0.00,0.0,WeatherDisplay:10.37,2013-04-09 01:20:00,
2013-04-08 21:25:00,43.3,25.9,29.80,SE,135,5.9,5.9,50,0.00,OVC,,0.00,0.0,WeatherDisplay:10.37,2013-04-09 01:25:00,
2013-04-08 21:30:00,43.3,25.9,29.77,SE,135,4.6,4.6,50,0.00,OVC,,0.00,0.0,WeatherDisplay:10.37,2013-04-09 01:30:00,
2013-04-08 21:36:00,43.3,25.9,29.77,SE,135,3.5,3.5,50,0.00,OVC,,0.00,0.0,WeatherDisplay:10.37,2013-04-09 01:36:00,
2013-04-08 21:41:00,43.3,25.9,29.77,SE,135,4.9,4.9,50,0.00,OVC,,0.00,0.0,WeatherDisplay:10.37,2013-04-09 01:41:00,
2013-04-08 21:46:00,43.3,25.9,29.77,ESE,112,2.6,2.6,50,0.00,OVC,,0.00,0.0,WeatherDisplay:10.37,2013-04-09 01:46:00,
2013-04-08 21:51:00,43.3,25.9,29.77,SSE,158,0.0,0.0,50,0.00,OVC,,0.00,0.0,WeatherDisplay:10.37,2013-04-09 01:51:00,
2013-04-08 21:56:00,43.3,25.9,29.77,ESE,112,2.3,2.3,50,0.00,OVC,,0.00,0.0,WeatherDisplay:10.37,2013-04-09 01:56:00,
2013-04-08 22:01:00,43.3,25.9,29.77,WNW,292,4.0,4.0,50,0.00,OVC,,0.00,0.0,WeatherDisplay:10.37,2013-04-09 02:01:00,
2013-04-08 22:06:00,43.3,25.9,29.77,WNW,292,0.0,0.0,50,0.00,-RA,,0.00,0.0,WeatherDisplay:10.37,2013-04-09 02:06:00,
2013-04-08 22:11:00,43.3,25.9,29.77,WNW,292,5.8,5.8,50,0.00,-RA,,0.00,0.0,WeatherDisplay:10.37,2013-04-09 02:11:00,
2013-04-08 22:16:00,43.3,25.9,29.77,West,270,4.3,4.3,50,0.00,-RA,,0.00,0.0,WeatherDisplay:10.37,2013-04-09 02:16:00,
2013-04-08 22:21:00,43.3,25.9,29.77,NW,315,4.0,0.0,50,0.00,-RA,,0.00,0.0,WeatherDisplay:10.37,2013-04-09 02:21:00,
2013-04-08 22:26:00,43.3,25.9,29.77,WNW,292,1.1,1.1,50,0.00,-RA,,0.00,0.0,WeatherDisplay:10.37,2013-04-09 02:26:00,
2013-04-08 22:31:00,43.3,25.9,29.77,ESE,112,0.0,0.0,50,0.00,-RA,,0.00,0.0,WeatherDisplay:10.37,2013-04-09 02:31:00,
2013-04-08 22:36:00,43.3,25.9,29.77,ENE,68,0.0,0.0,50,0.00,-RA,,0.00,0.0,WeatherDisplay:10.37,2013-04-09 02:36:00,
2013-04-08 22:41:00,43.3,25.9,29.77,ENE,68,0.0,0.0,50,0.00,-RA,,0.00,0.0,WeatherDisplay:10.37,2013-04-09 02:41:00,
2013-04-08 22:46:00,43.3,25.9,29.74,WSW,248,0.0,0.0,50,0.00,-RA,,0.00,0.0,WeatherDisplay:10.37,2013-04-09 02:46:00,
2013-04-08 22:52:00,43.3,25.9,29.74,SSE,158,1.1,0.0,50,0.00,-RA,,0.00,0.0,WeatherDisplay:10.37,2013-04-09 02:52:00,
2013-04-08 22:57:00,43.3,25.9,29.74,SSE,158,0.0,0.0,50,0.00,-RA,,0.00,0.0,WeatherDisplay:10.37,2013-04-09 02:57:00,
2013-04-08 23:02:00,43.3,25.9,29.80,ESE,112,0.0,0.0,50,0.00,OVC,,0.00,0.0,WeatherDisplay:10.37,2013-04-09 03:02:00,
2013-04-08 23:07:00,43.3,25.9,29.80,ESE,112,0.0,0.0,50,0.00,OVC,,0.00,0.0,WeatherDisplay:10.37,2013-04-09 03:07:00,
2013-04-08 23:12:00,43.3,25.9,29.80,SE,135,0.0,0.0,50,0.00,OVC,,0.00,0.0,WeatherDisplay:10.37,2013-04-09 03:12:00,
2013-04-08 23:17:00,43.3,25.9,29.77,SE,135,0.0,0.0,50,0.00,OVC,,0.00,0.0,WeatherDisplay:10.37,2013-04-09 03:17:00,
2013-04-08 23:22:00,43.3,25.9,29.77,SE,135,0.0,0.0,50,0.00,OVC,,0.00,0.0,WeatherDisplay:10.37,2013-04-09 03:22:00,
2013-04-08 23:27:00,43.3,25.9,29.77,SE,135,0.0,0.0,50,0.00,OVC,,0.00,0.0,WeatherDisplay:10.37,2013-04-09 03:27:00,
2013-04-08 23:32:00,43.3,25.9,29.74,SE,135,0.0,0.0,50,0.00,OVC,,0.00,0.0,WeatherDisplay:10.37,2013-04-09 03:32:00,
2013-04-08 23:37:00,43.3,25.9,29.74,SSE,158,0.0,0.0,50,0.00,OVC,,0.00,0.0,WeatherDisplay:10.37,2013-04-09 03:37:00,
2013-04-08 23:42:00,43.3,25.9,29.74,South,180,0.0,0.0,50,0.00,OVC,,0.00,0.0,WeatherDisplay:10.37,2013-04-09 03:42:00,
2013-04-08 23:47:00,43.3,25.9,29.74,SE,135,0.0,0.0,50,0.00,OVC,,0.00,0.0,WeatherDisplay:10.37,2013-04-09 03:47:00,
2013-04-08 23:52:00,43.3,25.9,29.74,SSE,158,0.0,0.0,50,0.00,OVC,,0.00,0.0,WeatherDisplay:10.37,2013-04-09 03:52:00,
2013-04-08 23:57:00,43.3,25.9,29.74,South,180,0.0,0.0,50,0.00,OVC,,0.00,0.0,WeatherDisplay:10.37,2013-04-09 03:57:00,